Le nostre stazioni meteo in Italia

Pubblicità
Il mio iltempo24.it
Aviano, Italia (16036): Temperatura & dewpoint: 30.06.2020 00:00:00 - 06.07.2020 00:00:00 (CEST)Aviano, Italia (16036): velocità del vento: 30.06.2020 00:00:00 - 06.07.2020 00:00:00 (CEST)Aviano, Italia (16036): direzione del vento: 30.06.2020 00:00:00 - 06.07.2020 00:00:00 (CEST)Aviano, Italia (16036): reduced air pressure: 30.06.2020 00:00:00 - 06.07.2020 00:00:00 (CEST)Aviano, Italia (16036): visibility: 30.06.2020 00:00:00 - 06.07.2020 00:00:00 (CEST)
Data & Tempo tt [°C] td [°C] ff [km/h] ff [kn] dd ppp [hPa] vv [km]
06.07.2020 00:00:00 - - - - - - -
05.07.2020 23:00:00 - - - - - - -
05.07.2020 22:00:00 - - - - - - -
05.07.2020 21:00:00 - - - - - - -
05.07.2020 20:00:00 - - - - - - -
05.07.2020 19:00:00 - - - - - - -
05.07.2020 18:00:00 - - - - - - -
05.07.2020 17:00:00 - - - - - - -
05.07.2020 16:00:00 - - - - - - -
05.07.2020 15:00:00 - - - - - - -
05.07.2020 14:00:00 - - - - - - -
05.07.2020 13:00:00 - - - - - - -
05.07.2020 12:00:00 - - - - - - -
05.07.2020 11:00:00 - - - - - - -
05.07.2020 10:00:00 - - - - - - -
05.07.2020 09:00:00 - - - - - - -
05.07.2020 08:00:00 - - - - - - -
05.07.2020 07:00:00 - - - - - - -
05.07.2020 06:00:00 - - - - - - -
05.07.2020 05:00:00 - - - - - - -
05.07.2020 04:00:00 - - - - - - -
05.07.2020 03:00:00 - - - - - - -
05.07.2020 02:00:00 - - - - - - -
05.07.2020 01:00:00 - - - - - - -
05.07.2020 00:00:00 - - - - - - -
04.07.2020 23:00:00 - - - - - - -
04.07.2020 22:00:00 - - - - - - -
04.07.2020 21:00:00 - - - - - - -
04.07.2020 20:00:00 - - - - - - -
04.07.2020 19:00:00 - - - - - - -
04.07.2020 18:00:00 - - - - - - -
04.07.2020 17:00:00 - - - - - - -
04.07.2020 16:00:00 - - - - - - -
04.07.2020 15:00:00 - - - - - - -
04.07.2020 14:00:00 - - - - - - -
04.07.2020 13:00:00 - - - - - - -
04.07.2020 12:00:00 - - - - - - -
04.07.2020 11:00:00 - - - - - - -
04.07.2020 10:00:00 - - - - - - -
04.07.2020 09:00:00 - - - - - - -
04.07.2020 08:00:00 - - - - - - -
04.07.2020 07:00:00 - - - - - - -
04.07.2020 06:00:00 - - - - - - -
04.07.2020 05:00:00 - - - - - - -
04.07.2020 04:00:00 - - - - - - -
04.07.2020 03:00:00 - - - - - - -
04.07.2020 02:00:00 - - - - - - -
04.07.2020 01:00:00 - - - - - - -
04.07.2020 00:00:00 - - - - - - -
03.07.2020 23:00:00 - - - - - - -
03.07.2020 22:00:00 - - - - - - -
03.07.2020 21:00:00 - - - - - - -
03.07.2020 20:00:00 25,4 17,9 8 4 ESE 1013,4 40
03.07.2020 19:00:00 26,0 17,0 9 5 SE - 10
03.07.2020 18:00:00 27,0 18,0 4 2 OSO - 10
03.07.2020 17:00:00 27,0 16,9 11 6 ESE 1012,9 40
03.07.2020 16:00:00 27,0 17,0 18 10 E - 10
03.07.2020 15:00:00 28,0 18,0 21 11 E - 10
03.07.2020 14:00:00 26,6 18,2 13 7 E 1012,8 30
03.07.2020 13:00:00 26,0 17,0 18 10 ESE - 10
03.07.2020 12:00:00 25,0 18,0 9 5 SSE - 10
03.07.2020 11:00:00 24,2 17,2 8 4 NO 1011,7 25
03.07.2020 10:00:00 22,0 17,0 4 2 SO - 10
03.07.2020 09:00:00 21,0 16,0 4 2 NE - 10
03.07.2020 08:00:00 22,0 15,4 13 7 E 1010,6 25
03.07.2020 07:00:00 21,0 16,0 11 6 ENE - 10
03.07.2020 06:00:00 21,0 17,0 11 6 ENE - 10
03.07.2020 05:00:00 - - - - - - -
03.07.2020 04:00:00 - - - - - - -
03.07.2020 03:00:00 - - - - - - -
03.07.2020 02:00:00 - - - - - - -
03.07.2020 01:00:00 - - - - - - -
03.07.2020 00:00:00 - - - - - - -
02.07.2020 23:00:00 22,0 20,3 5 3 N 1009,7 25
02.07.2020 22:00:00 23,0 21,0 9 5 N - 10
02.07.2020 21:00:00 23,0 21,0 8 4 NNE - 10
02.07.2020 20:00:00 23,0 21,3 11 6 NNE 1009,9 25
02.07.2020 19:00:00 26,0 19,0 22 12 NNE - 10
02.07.2020 18:00:00 28,0 20,0 2 1 SE - 10
02.07.2020 17:00:00 28,4 19,9 4 2 SSO 1009,8 25
02.07.2020 16:00:00 28,0 20,0 11 6 SSO - 10
02.07.2020 15:00:00 28,0 20,0 11 6 OSO - 10
02.07.2020 14:00:00 28,2 20,2 11 6 S 1010,4 25
02.07.2020 13:00:00 27,0 20,0 5 3 NE - 10
02.07.2020 12:00:00 25,0 19,0 4 2 N - 10
02.07.2020 11:00:00 23,0 20,3 4 2 OSO 1011,2 25
02.07.2020 10:00:00 22,0 20,0 13 7 SSO - 10
02.07.2020 09:00:00 22,0 21,0 9 5 SO - 10
02.07.2020 08:00:00 21,6 19,9 4 2 E 1010,1 25
02.07.2020 07:00:00 21,0 20,0 5 3 E - 10
02.07.2020 06:00:00 20,0 18,0 4 2 N - 10
02.07.2020 05:00:00 - - - - - - -
02.07.2020 04:00:00 - - - - - - -
02.07.2020 03:00:00 - - - - - - -
02.07.2020 02:00:00 - - - - - - -
02.07.2020 01:00:00 - - - - - - -
02.07.2020 00:00:00 - - - - - - -
01.07.2020 23:00:00 - - - - - - -
01.07.2020 22:00:00 - - - - - - -
01.07.2020 21:00:00 - - - - - - -
01.07.2020 20:00:00 27,4 22,6 8 4 ESE 1009,5 20
01.07.2020 19:00:00 28,0 23,0 13 7 NNE - 10
01.07.2020 18:00:00 27,0 23,0 9 5 N - 10
01.07.2020 17:00:00 25,0 20,3 9 5 ONO 1010,5 15
01.07.2020 16:00:00 28,0 23,0 11 6 SSO - 10
01.07.2020 15:00:00 29,0 23,0 13 7 SSO - 10
01.07.2020 14:00:00 30,0 23,4 8 4 S 1010,3 20
01.07.2020 13:00:00 29,0 21,0 5 3 SSE - 10
01.07.2020 12:00:00 28,0 21,0 5 3 S - 10
01.07.2020 11:00:00 27,4 21,2 8 4 N 1011,6 25
01.07.2020 10:00:00 26,0 21,0 5 3 NNE - 10
01.07.2020 09:00:00 25,0 21,0 2 1 N - 10
01.07.2020 08:00:00 23,6 21,9 4 2 N 1012,1 25
01.07.2020 07:00:00 22,0 21,0 4 2 NNO - 10
01.07.2020 06:00:00 22,0 21,0 5 3 NNO - 10
01.07.2020 05:00:00 - - - - - - -
01.07.2020 04:00:00 - - - - - - -
01.07.2020 03:00:00 - - - - - - -
01.07.2020 02:00:00 - - - - - - -
01.07.2020 01:00:00 - - - - - - -
01.07.2020 00:00:00 - - - - - - -
30.06.2020 23:00:00 - - - - - - -
30.06.2020 22:00:00 25,0 21,0 5 3 NE - 10
30.06.2020 21:00:00 27,0 22,0 8 4 N - 10
30.06.2020 20:00:00 28,0 20,8 8 4 NNE 1010,6 25
30.06.2020 19:00:00 28,0 21,0 9 5 NE - 10
30.06.2020 18:00:00 28,0 20,0 4 2 ENE - 10
30.06.2020 17:00:00 28,4 19,9 8 4 E 1011,2 25
30.06.2020 16:00:00 28,0 20,0 9 5 ESE - 10
30.06.2020 15:00:00 28,0 20,0 4 2 NNE - 10
30.06.2020 14:00:00 28,4 19,4 9 5 NE 1012,1 35
30.06.2020 13:00:00 28,0 19,0 11 6 ENE - 10
30.06.2020 12:00:00 27,0 19,0 16 9 E - 10
30.06.2020 11:00:00 26,8 18,7 16 9 ENE 1012,5 30
30.06.2020 10:00:00 26,0 19,0 13 7 ENE - 10
30.06.2020 09:00:00 25,0 20,0 13 7 ENE - 10
30.06.2020 08:00:00 24,0 19,1 13 7 NE 1011,9 28
30.06.2020 07:00:00 22,0 19,0 11 6 NE - 10
30.06.2020 06:00:00 22,0 20,0 9 5 NNE - 10
30.06.2020 05:00:00 - - - - - - -
30.06.2020 04:00:00 - - - - - - -
30.06.2020 03:00:00 - - - - - - -
30.06.2020 02:00:00 - - - - - - -
30.06.2020 01:00:00 - - - - - - -
30.06.2020 00:00:00 - - - - - - -

tt = Temperatura
td = dewpoint
ff = velocità del vento
dd = direzione del vento
ppp = reduced air pressure
vv = visibility

Stazioni seguenti

WeatherPro
AMSI
MeteoEarth